START_TIME,STEP,MOV.,M35,t_acc.,PL05,t_acc.,PL06,t_acc.,PL07,t_acc.
1979-07-21 09:00:23.610 ,0,0,0.,4.8,0.,4.8,0.,4.8,1.,4.8
1979-07-21 09:00:28.410 ,0,0,0.,4.8,0.,4.8,0.,4.8,0.,4.8
1979-07-21 09:00:33.210 ,0,0,0.,4.8,3.,4.8,0.,4.8,0.,4.8
1979-07-21 09:00:38.010 ,0,0,0.,4.8,2.,4.8,1.,4.8,1.,4.8
1979-07-21 09:00:42.810 ,0,0,0.,4.8,2.,4.8,0.,4.8,2.,4.8
1979-07-21 09:00:47.610 ,0,0,0.,4.8,3.,4.8,1.,4.8,1.,4.8
1979-07-21 09:00:52.410 ,0,0,0.,4.8,2.,4.8,1.,4.8,1.,4.8
1979-07-21 09:00:57.210 ,0,0,0.,4.8,3.,4.8,1.,4.8,0.,4.8
1979-07-21 09:01:02.010 ,0,0,0.,4.8,0.,4.8,1.,4.8,1.,4.8
1979-07-21 09:01:06.810 ,0,0,0.,4.8,4.,4.8,0.,4.8,1.,4.8
1979-07-21 09:01:11.610 ,0,0,0.,4.8,6.,4.8,1.,4.8,1.,4.8
1979-07-21 09:01:16.410 ,0,0,0.,4.8,0.,4.8,4.,4.8,0.,4.8
1979-07-21 09:01:21.210 ,0,0,0.,4.8,1.,4.8,0.,4.8,1.,4.8
1979-07-21 09:01:26.010 ,0,0,0.,4.8,1.,4.8,0.,4.8,0.,4.8
1979-07-21 09:01:30.810 ,0,0,0.,4.8,4.,4.8,1.,4.8,1.,4.8
1979-07-21 09:01:35.610 ,1,0,0.,4.8,3.,4.8,0.,4.8,0.,4.8
1979-07-21 09:01:40.410 ,1,0,0.,4.8,3.,4.8,3.,4.8,3.,4.8
1979-07-21 09:01:45.210 ,1,0,0.,4.8,2.,4.8,2.,4.8,3.,4.8
1979-07-21 09:01:50.010 ,1,0,0.,4.8,7.,4.8,1.,4.8,1.,4.8
1979-07-21 09:01:54.810 ,1,0,0.,4.8,2.,4.8,2.,4.8,1.,4.8
1979-07-21 09:01:59.610 ,1,0,0.,4.8,3.,4.8,0.,4.8,1.,4.8
1979-07-21 09:02:04.410 ,1,0,0.,4.8,2.,4.8,0.,4.8,3.,4.8
1979-07-21 09:02:09.210 ,1,0,0.,4.8,2.,4.8,0.,4.8,0.,4.8
1979-07-21 09:02:14.010 ,1,0,0.,4.8,2.,4.8,1.,4.8,1.,4.8
1979-07-21 09:02:18.810 ,1,0,0.,4.8,4.,4.8,2.,4.8,1.,4.8
1979-07-21 09:02:23.610 ,0,0,0.,4.8,2.,4.8,2.,4.8,0.,4.8
1979-07-21 09:02:28.410 ,0,0,0.,4.8,4.,4.8,1.,4.8,1.,4.8
1979-07-21 09:02:33.210 ,0,0,0.,4.8,5.,4.8,3.,4.8,2.,4.8
1979-07-21 09:02:38.010 ,0,0,0.,4.8,3.,4.8,2.,4.8,1.,4.8
1979-07-21 09:02:42.810 ,0,0,0.,4.8,4.,4.8,1.,4.8,1.,4.8
1979-07-21 09:02:47.610 ,0,0,0.,4.8,2.,4.8,5.,4.8,2.,4.8
1979-07-21 09:02:52.410 ,0,0,0.,4.8,7.,4.8,4.,4.8,0.,4.8
1979-07-21 09:02:57.210 ,0,0,0.,4.8,5.,4.8,1.,4.8,2.,4.8
1979-07-21 09:03:02.010 ,0,0,0.,4.8,5.,4.8,2.,4.8,0.,4.8
1979-07-21 09:03:06.810 ,0,0,0.,4.8,2.,4.8,2.,4.8,3.,4.8
1979-07-21 09:03:11.610 ,3,0,0.,4.8,5.,4.8,1.,4.8,2.,4.8
1979-07-21 09:03:16.410 ,3,0,0.,4.8,4.,4.8,2.,4.8,3.,4.8
1979-07-21 09:03:21.210 ,3,0,0.,4.8,3.,4.8,2.,4.8,2.,4.8
1979-07-21 09:03:26.010 ,3,0,0.,4.8,1.,4.8,2.,4.8,0.,4.8
1979-07-21 09:03:30.810 ,3,0,0.,4.8,2.,4.8,2.,4.8,1.,4.8
1979-07-21 09:03:35.610 ,3,0,0.,4.8,5.,4.8,1.,4.8,2.,4.8
1979-07-21 09:03:40.410 ,3,0,0.,4.8,5.,4.8,0.,4.8,2.,4.8
1979-07-21 09:03:45.210 ,3,0,0.,4.8,4.,4.8,1.,4.8,3.,4.8
1979-07-21 09:03:50.010 ,3,0,0.,4.8,0.,4.8,3.,4.8,1.,4.8
1979-07-21 09:03:54.810 ,3,0,0.,4.8,3.,4.8,1.,4.8,1.,4.8
1979-07-21 09:03:59.610 ,4,0,0.,4.8,2.,4.8,2.,4.8,1.,4.8
1979-07-21 09:04:04.410 ,4,0,0.,4.8,3.,4.8,1.,4.8,0.,4.8
1979-07-21 09:04:09.210 ,4,0,0.,4.8,2.,4.8,3.,4.8,0.,4.8
1979-07-21 09:04:14.010 ,4,0,0.,4.8,5.,4.8,1.,4.8,0.,4.8
1979-07-21 09:04:18.810 ,4,0,0.,4.8,5.,4.8,1.,4.8,0.,4.8
1979-07-21 09:04:23.610 ,4,0,0.,4.8,2.,4.8,0.,4.8,2.,4.8
1979-07-21 09:04:28.410 ,4,0,0.,4.8,2.,4.8,0.,4.8,1.,4.8
1979-07-21 09:04:33.210 ,4,0,0.,4.8,4.,4.8,2.,4.8,4.,4.8
1979-07-21 09:04:38.010 ,4,0,0.,4.8,4.,4.8,0.,4.8,0.,4.8
1979-07-21 09:04:42.810 ,4,0,0.,4.8,2.,4.8,0.,4.8,2.,4.8
1979-07-21 09:04:47.610 ,5,0,0.,4.8,1.,4.8,2.,4.8,0.,4.8
1979-07-21 09:04:52.410 ,5,0,0.,4.8,2.,4.8,0.,4.8,0.,4.8
1979-07-21 09:04:57.210 ,5,0,0.,4.8,3.,4.8,0.,4.8,0.,4.8
1979-07-21 09:05:02.010 ,5,0,0.,4.8,2.,4.8,1.,4.8,0.,4.8
1979-07-21 09:05:06.810 ,5,0,0.,4.8,1.,4.8,1.,4.8,2.,4.8
1979-07-21 09:05:11.610 ,5,0,0.,4.8,5.,4.8,0.,4.8,1.,4.8
1979-07-21 09:05:16.410 ,5,0,0.,4.8,4.,4.8,2.,4.8,0.,4.8
1979-07-21 09:05:21.210 ,5,0,0.,4.8,2.,4.8,1.,4.8,0.,4.8
1979-07-21 09:05:26.010 ,5,0,0.,4.8,3.,4.8,1.,4.8,0.,4.8
1979-07-21 09:05:30.810 ,5,0,0.,4.8,3.,4.8,1.,4.8,1.,4.8
1979-07-21 09:05:35.610 ,6,0,0.,4.8,2.,4.8,1.,4.8,1.,4.8
1979-07-21 09:05:40.410 ,6,0,0.,4.8,1.,4.8,1.,4.8,1.,4.8
1979-07-21 09:05:45.210 ,6,0,0.,4.8,2.,4.8,0.,4.8,1.,4.8
1979-07-21 09:05:50.010 ,6,0,0.,4.8,3.,4.8,0.,4.8,0.,4.8
1979-07-21 09:05:54.810 ,6,0,0.,4.8,0.,4.8,1.,4.8,1.,4.8
1979-07-21 09:05:59.610 ,6,0,0.,4.8,3.,4.8,1.,4.8,0.,4.8
1979-07-21 09:06:04.410 ,6,0,0.,4.8,0.,4.8,1.,4.8,0.,4.8
1979-07-21 09:06:09.210 ,6,0,0.,4.8,5.,4.8,1.,4.8,2.,4.8
1979-07-21 09:06:14.010 ,6,0,0.,4.8,4.,4.8,0.,4.8,0.,4.8
1979-07-21 09:06:18.810 ,6,0,0.,4.8,1.,4.8,5.,4.8,1.,4.8
1979-07-21 09:06:23.610 ,7,0,0.,4.8,1.,4.8,2.,4.8,1.,4.8
1979-07-21 09:06:28.410 ,7,0,0.,4.8,3.,4.8,0.,4.8,1.,4.8
1979-07-21 09:06:33.210 ,7,0,0.,4.8,1.,4.8,1.,4.8,0.,4.8
1979-07-21 09:06:38.010 ,7,0,0.,4.8,0.,4.8,0.,4.8,0.,4.8
1979-07-21 09:06:42.810 ,7,0,0.,4.8,1.,4.8,0.,4.8,0.,4.8
1979-07-21 09:06:47.610 ,7,0,0.,4.8,2.,4.8,0.,4.8,0.,4.8
1979-07-21 09:06:52.410 ,7,0,0.,4.8,0.,4.8,0.,4.8,0.,4.8
1979-07-21 09:06:57.210 ,7,0,0.,4.8,0.,4.8,0.,4.8,0.,4.8
1979-07-21 09:07:02.010 ,7,0,0.,4.8,1.,4.8,0.,4.8,0.,4.8
1979-07-21 09:07:06.810 ,7,0,0.,4.8,0.,4.8,0.,4.8,0.,4.8
1979-07-21 09:07:11.610 ,3,1,0.,4.8,0.,4.8,1.,4.8,0.,4.8
1979-07-21 09:07:16.410 ,3,1,0.,4.8,4.,4.8,3.,4.8,2.,4.8
1979-07-21 09:07:21.210 ,3,1,0.,4.8,4.,4.8,1.,4.8,0.,4.8
1979-07-21 09:07:26.010 ,3,1,0.,4.8,1.,4.8,0.,4.8,0.,4.8
1979-07-21 09:07:30.810 ,3,1,0.,4.8,3.,4.8,1.,4.8,1.,4.8
1979-07-21 09:07:35.610 ,0,1,0.,4.8,5.,4.8,1.,4.8,2.,4.8
1979-07-21 09:07:40.410 ,0,1,0.,4.8,3.,4.8,2.,4.8,1.,4.8
1979-07-21 09:07:45.210 ,0,1,0.,4.8,6.,4.8,4.,4.8,1.,4.8
1979-07-21 09:07:50.010 ,0,1,0.,4.8,4.,4.8,0.,4.8,0.,4.8
1979-07-21 09:07:54.810 ,0,1,0.,4.8,2.,4.8,2.,4.8,0.,4.8
1979-07-21 09:07:59.610 ,4,1,0.,4.8,1.,4.8,4.,4.8,1.,4.8
1979-07-21 09:08:04.410 ,4,1,0.,4.8,3.,4.8,1.,4.8,1.,4.8
1979-07-21 09:08:09.210 ,4,1,0.,4.8,2.,4.8,2.,4.8,2.,4.8
1979-07-21 09:08:14.010 ,4,1,0.,4.8,5.,4.8,2.,4.8,0.,4.8
1979-07-21 09:08:18.810 ,4,1,0.,4.8,2.,4.8,1.,4.8,5.,4.8
1979-07-21 09:08:23.610 ,7,1,0.,4.8,4.,4.8,1.,4.8,3.,4.8
1979-07-21 09:08:28.410 ,7,1,0.,4.8,1.,4.8,1.,4.8,1.,4.8
1979-07-21 09:08:33.210 ,7,1,0.,4.8,3.,4.8,0.,4.8,1.,4.8
1979-07-21 09:08:38.010 ,7,1,0.,4.8,1.,4.8,0.,4.8,0.,4.8
1979-07-21 09:08:42.810 ,7,1,0.,4.8,0.,4.8,0.,4.8,1.,4.8
1979-07-21 09:08:47.610 ,3,1,0.,4.8,0.,4.8,0.,4.8,0.,4.8
1979-07-21 09:08:52.410 ,3,1,0.,4.8,2.,4.8,0.,4.8,1.,4.8
1979-07-21 09:08:57.210 ,3,1,0.,4.8,3.,4.8,1.,4.8,1.,4.8
1979-07-21 09:09:02.010 ,3,1,0.,4.8,1.,4.8,2.,4.8,1.,4.8
1979-07-21 09:09:06.810 ,3,1,0.,4.8,6.,4.8,0.,4.8,0.,4.8
1979-07-21 09:09:11.610 ,0,1,0.,4.8,2.,4.8,1.,4.8,4.,4.8
1979-07-21 09:09:16.410 ,0,1,0.,4.8,1.,4.8,3.,4.8,2.,4.8
1979-07-21 09:09:21.210 ,0,1,0.,4.8,3.,4.8,2.,4.8,1.,4.8
1979-07-21 09:09:26.010 ,0,1,0.,4.8,1.,4.8,3.,4.8,2.,4.8
1979-07-21 09:09:30.810 ,0,1,0.,4.8,3.,4.8,0.,4.8,2.,4.8
1979-07-21 09:09:35.610 ,4,1,0.,4.8,2.,4.8,0.,4.8,0.,4.8
1979-07-21 09:09:40.410 ,4,1,0.,4.8,1.,4.8,1.,4.8,1.,4.8
1979-07-21 09:09:45.210 ,4,1,0.,4.8,3.,4.8,1.,4.8,3.,4.8
1979-07-21 09:09:50.010 ,4,1,0.,4.8,4.,4.8,0.,4.8,2.,4.8
1979-07-21 09:09:54.810 ,4,1,0.,4.8,4.,4.8,0.,4.8,1.,4.8
1979-07-21 09:09:59.610 ,7,1,0.,4.8,8.,4.8,1.,4.8,2.,4.8
1979-07-21 09:10:04.410 ,7,1,0.,4.8,2.,4.8,0.,4.8,1.,4.8
1979-07-21 09:10:09.210 ,7,1,0.,4.8,6.,4.8,0.,4.8,0.,4.8
1979-07-21 09:10:14.010 ,7,1,0.,4.8,1.,4.8,1.,4.8,0.,4.8
1979-07-21 09:10:18.810 ,7,1,0.,4.8,1.,4.8,0.,4.8,0.,4.8
1979-07-21 09:10:23.610 ,3,1,0.,4.8,0.,4.8,1.,4.8,0.,4.8
1979-07-21 09:10:28.410 ,3,1,0.,4.8,2.,4.8,1.,4.8,4.,4.8
1979-07-21 09:10:33.210 ,3,1,0.,4.8,2.,4.8,2.,4.8,2.,4.8
1979-07-21 09:10:38.010 ,3,1,0.,4.8,2.,4.8,2.,4.8,1.,4.8
1979-07-21 09:10:42.810 ,3,1,0.,4.8,2.,4.8,4.,4.8,1.,4.8
1979-07-21 09:10:47.610 ,0,1,0.,4.8,0.,4.8,3.,4.8,0.,4.8
1979-07-21 09:10:52.410 ,0,1,0.,4.8,1.,4.8,1.,4.8,1.,4.8
1979-07-21 09:10:57.210 ,0,1,0.,4.8,2.,4.8,3.,4.8,0.,4.8
1979-07-21 09:11:02.010 ,0,1,0.,4.8,2.,4.8,1.,4.8,2.,4.8
1979-07-21 09:11:06.810 ,0,1,0.,4.8,5.,4.8,2.,4.8,1.,4.8
1979-07-21 09:11:11.610 ,4,1,0.,4.8,6.,4.8,1.,4.8,0.,4.8
1979-07-21 09:11:16.410 ,4,1,0.,4.8,1.,4.8,1.,4.8,1.,4.8
1979-07-21 09:11:21.210 ,4,1,0.,4.8,4.,4.8,2.,4.8,2.,4.8
1979-07-21 09:11:26.010 ,4,1,0.,4.8,2.,4.8,3.,4.8,3.,4.8
1979-07-21 09:11:30.810 ,4,1,0.,4.8,4.,4.8,0.,4.8,3.,4.8
1979-07-21 09:11:35.610 ,7,1,0.,4.8,6.,4.8,0.,4.8,1.,4.8
1979-07-21 09:11:40.410 ,7,1,0.,4.8,3.,4.8,1.,4.8,3.,4.8
1979-07-21 09:11:45.210 ,7,1,0.,4.8,4.,4.8,1.,4.8,0.,4.8
1979-07-21 09:11:50.010 ,7,1,0.,4.8,1.,4.8,0.,4.8,1.,4.8
1979-07-21 09:11:54.810 ,7,1,0.,4.8,0.,4.8,1.,4.8,0.,4.8
1979-07-21 09:11:59.610 ,3,1,0.,4.8,1.,4.8,2.,4.8,0.,4.8
1979-07-21 09:12:04.410 ,3,1,0.,4.8,2.,4.8,0.,4.8,0.,4.8
1979-07-21 09:12:09.210 ,3,1,0.,4.8,2.,4.8,1.,4.8,2.,4.8
1979-07-21 09:12:14.010 ,3,1,0.,4.8,2.,4.8,2.,4.8,2.,4.8
1979-07-21 09:12:18.810 ,3,1,0.,4.8,4.,4.8,0.,4.8,1.,4.8
1979-07-21 09:12:23.610 ,0,1,0.,4.8,2.,4.8,4.,4.8,1.,4.8
1979-07-21 09:12:28.410 ,0,1,0.,4.8,2.,4.8,1.,4.8,1.,4.8
1979-07-21 09:12:33.210 ,0,1,0.,4.8,3.,4.8,0.,4.8,1.,4.8
1979-07-21 09:12:38.010 ,0,1,0.,4.8,4.,4.8,1.,4.8,2.,4.8
1979-07-21 09:12:42.810 ,0,1,0.,4.8,0.,4.8,2.,4.8,0.,4.8
1979-07-21 09:12:47.610 ,4,1,0.,4.8,2.,4.8,1.,4.8,0.,4.8
1979-07-21 09:12:52.410 ,4,1,0.,4.8,4.,4.8,4.,4.8,0.,4.8
1979-07-21 09:12:57.210 ,4,1,0.,4.8,1.,4.8,1.,4.8,3.,4.8
1979-07-21 09:13:02.010 ,4,1,0.,4.8,1.,4.8,2.,4.8,1.,4.8
1979-07-21 09:13:06.810 ,4,1,0.,4.8,2.,4.8,4.,4.8,1.,4.8
1979-07-21 09:13:11.610 ,7,1,0.,4.8,4.,4.8,3.,4.8,2.,4.8
1979-07-21 09:13:16.410 ,7,1,0.,4.8,0.,4.8,3.,4.8,0.,4.8
1979-07-21 09:13:21.210 ,7,1,0.,4.8,0.,4.8,3.,4.8,0.,4.8
1979-07-21 09:13:26.010 ,7,1,0.,4.8,1.,4.8,1.,4.8,0.,4.8
1979-07-21 09:13:30.810 ,7,1,0.,4.8,1.,4.8,0.,4.8,1.,4.8
1979-07-21 09:13:35.610 ,3,1,0.,4.8,0.,4.8,1.,4.8,1.,4.8
1979-07-21 09:13:40.410 ,3,1,0.,4.8,1.,4.8,0.,4.8,2.,4.8
1979-07-21 09:13:45.210 ,3,1,0.,4.8,2.,4.8,1.,4.8,2.,4.8
1979-07-21 09:13:50.010 ,3,1,0.,4.8,3.,4.8,2.,4.8,1.,4.8
1979-07-21 09:13:54.810 ,3,1,0.,4.8,2.,4.8,2.,4.8,3.,4.8
1979-07-21 09:13:59.610 ,0,1,0.,4.8,3.,4.8,1.,4.8,0.,4.8
1979-07-21 09:14:04.410 ,0,1,0.,4.8,6.,4.8,2.,4.8,2.,4.8
1979-07-21 09:14:09.210 ,0,1,0.,4.8,5.,4.8,0.,4.8,1.,4.8
1979-07-21 09:14:14.010 ,0,1,0.,4.8,5.,4.8,5.,4.8,1.,4.8
1979-07-21 09:14:18.810 ,0,1,0.,4.8,1.,4.8,0.,4.8,0.,4.8
1979-07-21 09:14:23.610 ,4,1,0.,4.8,3.,4.8,3.,4.8,0.,4.8
1979-07-21 09:14:28.410 ,4,1,0.,4.8,0.,4.8,2.,4.8,2.,4.8
1979-07-21 09:14:33.210 ,4,1,0.,4.8,5.,4.8,1.,4.8,0.,4.8
1979-07-21 09:14:38.010 ,4,1,0.,4.8,3.,4.8,0.,4.8,0.,4.8
1979-07-21 09:14:42.810 ,4,1,0.,4.8,2.,4.8,2.,4.8,1.,4.8
1979-07-21 09:14:47.610 ,7,1,0.,4.8,5.,4.8,0.,4.8,1.,4.8
1979-07-21 09:14:52.410 ,7,1,0.,4.8,3.,4.8,0.,4.8,2.,4.8
1979-07-21 09:14:57.210 ,7,1,0.,4.8,7.,4.8,2.,4.8,0.,4.8
1979-07-21 09:15:02.010 ,7,1,0.,4.8,0.,4.8,0.,4.8,0.,4.8
1979-07-21 09:15:06.810 ,7,1,0.,4.8,0.,4.8,0.,4.8,0.,4.8
1979-07-21 09:15:11.610 ,3,1,0.,4.8,1.,4.8,2.,4.8,0.,4.8
1979-07-21 09:15:16.410 ,3,1,0.,4.8,3.,4.8,1.,4.8,2.,4.8
1979-07-21 09:15:21.210 ,3,1,0.,4.8,3.,4.8,2.,4.8,0.,4.8
1979-07-21 09:15:26.010 ,3,1,0.,4.8,0.,4.8,2.,4.8,2.,4.8
1979-07-21 09:15:30.810 ,3,1,0.,4.8,5.,4.8,2.,4.8,1.,4.8
1979-07-21 09:15:35.610 ,0,1,0.,4.8,2.,4.8,1.,4.8,1.,4.8
1979-07-21 09:15:40.410 ,0,1,0.,4.8,3.,4.8,2.,4.8,2.,4.8
1979-07-21 09:15:45.210 ,0,1,0.,4.8,2.,4.8,0.,4.8,3.,4.8
1979-07-21 09:15:50.010 ,0,1,0.,4.8,4.,4.8,2.,4.8,0.,4.8
1979-07-21 09:15:54.810 ,0,1,0.,4.8,1.,4.8,1.,4.8,0.,4.8
1979-07-21 09:15:59.610 ,4,1,0.,4.8,3.,4.8,0.,4.8,1.,4.8
1979-07-21 09:16:04.410 ,4,1,0.,4.8,2.,4.8,0.,4.8,1.,4.8
1979-07-21 09:16:09.210 ,4,1,0.,4.8,1.,4.8,1.,4.8,1.,4.8
1979-07-21 09:16:14.010 ,4,1,0.,4.8,4.,4.8,3.,4.8,2.,4.8
1979-07-21 09:16:18.810 ,4,1,0.,4.8,3.,4.8,1.,4.8,0.,4.8
1979-07-21 09:16:23.610 ,7,1,0.,4.8,4.,4.8,2.,4.8,3.,4.8
1979-07-21 09:16:28.410 ,7,1,0.,4.8,7.,4.8,3.,4.8,0.,4.8
1979-07-21 09:16:33.210 ,7,1,0.,4.8,0.,4.8,1.,4.8,2.,4.8
1979-07-21 09:16:38.010 ,7,1,0.,4.8,0.,4.8,0.,4.8,2.,4.8
1979-07-21 09:16:42.810 ,7,1,0.,4.8,0.,4.8,2.,4.8,0.,4.8
1979-07-21 09:16:47.610 ,3,1,0.,4.8,1.,4.8,1.,4.8,1.,4.8
1979-07-21 09:16:52.410 ,3,1,0.,4.8,5.,4.8,3.,4.8,3.,4.8
1979-07-21 09:16:57.210 ,3,1,0.,4.8,5.,4.8,2.,4.8,1.,4.8
1979-07-21 09:17:02.010 ,3,1,0.,4.8,3.,4.8,2.,4.8,2.,4.8
1979-07-21 09:17:06.810 ,3,1,0.,4.8,1.,4.8,2.,4.8,2.,4.8
1979-07-21 09:17:11.610 ,0,1,0.,4.8,3.,4.8,3.,4.8,1.,4.8
1979-07-21 09:17:16.410 ,0,1,0.,4.8,3.,4.8,2.,4.8,1.,4.8
1979-07-21 09:17:21.210 ,0,1,0.,4.8,4.,4.8,2.,4.8,2.,4.8
1979-07-21 09:17:26.010 ,0,1,0.,4.8,5.,4.8,2.,4.8,2.,4.8
1979-07-21 09:17:30.810 ,0,1,0.,4.8,2.,4.8,0.,4.8,2.,4.8
1979-07-21 09:17:35.610 ,0,0,0.,4.8,7.,4.8,0.,4.8,0.,4.8
1979-07-21 09:17:40.410 ,0,0,0.,4.8,6.,4.8,1.,4.8,3.,4.8
1979-07-21 09:17:45.210 ,0,0,0.,4.8,4.,4.8,1.,4.8,1.,4.8
1979-07-21 09:17:50.010 ,0,0,0.,4.8,6.,4.8,7.,4.8,1.,4.8
1979-07-21 09:17:54.810 ,0,0,0.,4.8,3.,4.8,2.,4.8,1.,4.8
1979-07-21 09:17:59.610 ,0,0,0.,4.8,6.,4.8,0.,4.8,3.,4.8
1979-07-21 09:18:04.410 ,0,0,0.,4.8,4.,4.8,1.,4.8,0.,4.8
1979-07-21 09:18:09.210 ,0,0,0.,4.8,3.,4.8,1.,4.8,0.,4.8
1979-07-21 09:18:14.010 ,0,0,0.,4.8,1.,4.8,1.,4.8,0.,4.8
1979-07-21 09:18:18.810 ,0,0,0.,4.8,1.,4.8,1.,4.8,0.,4.8
1979-07-21 09:18:23.610 ,5,0,0.,4.8,0.,4.8,0.,4.8,1.,4.8
1979-07-21 09:18:28.410 ,5,0,0.,4.8,4.,4.8,2.,4.8,2.,4.8
1979-07-21 09:18:33.210 ,5,0,0.,4.8,5.,4.8,0.,4.8,0.,4.8
1979-07-21 09:18:38.010 ,5,0,0.,4.8,2.,4.8,3.,4.8,0.,4.8
1979-07-21 09:18:42.810 ,5,0,0.,4.8,4.,4.8,0.,4.8,1.,4.8
1979-07-21 09:18:47.610 ,5,0,0.,4.8,2.,4.8,0.,4.8,0.,4.8
1979-07-21 09:18:52.410 ,5,0,0.,4.8,3.,4.8,0.,4.8,0.,4.8
1979-07-21 09:18:57.210 ,5,0,0.,4.8,1.,4.8,4.,4.8,1.,4.8
1979-07-21 09:19:02.010 ,5,0,0.,4.8,2.,4.8,1.,4.8,1.,4.8
1979-07-21 09:19:06.810 ,5,0,0.,4.8,4.,4.8,3.,4.8,1.,4.8
1979-07-21 09:19:11.610 ,4,0,0.,4.8,7.,4.8,3.,4.8,0.,4.8
1979-07-21 09:19:16.410 ,4,0,0.,4.8,1.,4.8,2.,4.8,1.,4.8
1979-07-21 09:19:21.210 ,4,0,0.,4.8,1.,4.8,1.,4.8,2.,4.8
1979-07-21 09:19:26.010 ,4,0,0.,4.8,3.,4.8,0.,4.8,1.,4.8
1979-07-21 09:19:30.810 ,4,0,0.,4.8,1.,4.8,2.,4.8,2.,4.8
1979-07-21 09:19:35.610 ,4,0,0.,4.8,3.,4.8,1.,4.8,1.,4.8
1979-07-21 09:19:40.410 ,4,0,0.,4.8,3.,4.8,3.,4.8,1.,4.8
1979-07-21 09:19:45.210 ,4,0,0.,4.8,3.,4.8,2.,4.8,3.,4.8
1979-07-21 09:19:50.010 ,4,0,0.,4.8,3.,4.8,0.,4.8,1.,4.8
1979-07-21 09:19:54.810 ,4,0,0.,4.8,4.,4.8,3.,4.8,3.,4.8
1979-07-21 09:19:59.610 ,3,0,0.,4.8,2.,4.8,1.,4.8,2.,4.8
1979-07-21 09:20:04.410 ,3,0,0.,4.8,5.,4.8,0.,4.8,0.,4.8
1979-07-21 09:20:09.210 ,3,0,0.,4.8,2.,4.8,1.,4.8,3.,4.8
1979-07-21 09:20:14.010 ,3,0,0.,4.8,4.,4.8,2.,4.8,2.,4.8
1979-07-21 09:20:18.810 ,3,0,0.,4.8,1.,4.8,1.,4.8,1.,4.8
1979-07-21 09:20:23.610 ,3,0,0.,4.8,3.,4.8,2.,4.8,3.,4.8
1979-07-21 09:20:28.410 ,3,0,0.,4.8,3.,4.8,2.,4.8,4.,4.8
1979-07-21 09:20:33.210 ,3,0,0.,4.8,7.,4.8,0.,4.8,3.,4.8
1979-07-21 09:20:38.010 ,3,0,0.,4.8,4.,4.8,2.,4.8,1.,4.8
1979-07-21 09:20:42.810 ,3,0,0.,4.8,5.,4.8,1.,4.8,1.,4.8
1979-07-21 09:20:47.610 ,2,0,0.,4.8,4.,4.8,3.,4.8,0.,4.8
1979-07-21 09:20:52.410 ,2,0,0.,4.8,3.,4.8,0.,4.8,2.,4.8
1979-07-21 09:20:57.210 ,2,0,0.,4.8,4.,4.8,3.,4.8,2.,4.8
1979-07-21 09:21:02.010 ,2,0,0.,4.8,5.,4.8,0.,4.8,1.,4.8
1979-07-21 09:21:06.810 ,2,0,0.,4.8,3.,4.8,2.,4.8,0.,4.8
1979-07-21 09:21:11.610 ,2,0,0.,4.8,5.,4.8,0.,4.8,1.,4.8
1979-07-21 09:21:16.410 ,2,0,0.,4.8,4.,4.8,1.,4.8,1.,4.8
1979-07-21 09:21:21.210 ,2,0,0.,4.8,3.,4.8,1.,4.8,0.,4.8
1979-07-21 09:21:26.010 ,2,0,0.,4.8,4.,4.8,0.,4.8,0.,4.8
1979-07-21 09:21:30.810 ,2,0,0.,4.8,2.,4.8,1.,4.8,2.,4.8
1979-07-21 09:21:35.610 ,1,0,0.,4.8,4.,4.8,1.,4.8,0.,4.8
1979-07-21 09:21:40.410 ,1,0,0.,4.8,4.,4.8,2.,4.8,2.,4.8
1979-07-21 09:21:45.210 ,1,0,0.,4.8,1.,4.8,1.,4.8,1.,4.8
1979-07-21 09:21:50.010 ,1,0,0.,4.8,4.,4.8,4.,4.8,1.,4.8
1979-07-21 09:21:54.810 ,1,0,0.,4.8,5.,4.8,1.,4.8,3.,4.8
1979-07-21 09:21:59.610 ,1,0,0.,4.8,2.,4.8,0.,4.8,1.,4.8
1979-07-21 09:22:04.410 ,1,0,0.,4.8,1.,4.8,1.,4.8,1.,4.8
1979-07-21 09:22:09.210 ,1,0,0.,4.8,0.,4.8,4.,4.8,0.,4.8
1979-07-21 09:22:14.010 ,1,0,0.,4.8,3.,4.8,1.,4.8,2.,4.8
1979-07-21 09:22:18.810 ,1,0,0.,4.8,1.,4.8,1.,4.8,0.,4.8
1979-07-21 09:22:23.610 ,0,0,0.,4.8,2.,4.8,1.,4.8,2.,4.8
1979-07-21 09:22:28.410 ,0,0,0.,4.8,3.,4.8,0.,4.8,1.,4.8
1979-07-21 09:22:33.210 ,0,0,0.,4.8,1.,4.8,1.,4.8,0.,4.8
1979-07-21 09:22:38.010 ,0,0,0.,4.8,3.,4.8,2.,4.8,0.,4.8
1979-07-21 09:22:42.810 ,0,0,0.,4.8,2.,4.8,1.,4.8,0.,4.8
1979-07-21 09:22:47.610 ,0,0,0.,4.8,3.,4.8,0.,4.8,1.,4.8
1979-07-21 09:22:52.410 ,0,0,0.,4.8,3.,4.8,2.,4.8,2.,4.8
1979-07-21 09:22:57.210 ,0,0,0.,4.8,5.,4.8,1.,4.8,0.,4.8
1979-07-21 09:23:02.010 ,0,0,0.,4.8,4.,4.8,2.,4.8,2.,4.8
1979-07-21 09:23:06.810 ,0,0,0.,4.8,6.,4.8,1.,4.8,0.,4.8
1979-07-21 09:23:11.610 ,0,0,0.,4.8,3.,4.8,2.,4.8,1.,4.8
1979-07-21 09:23:16.410 ,0,0,0.,4.8,1.,4.8,2.,4.8,1.,4.8
1979-07-21 09:23:21.210 ,0,0,0.,4.8,4.,4.8,1.,4.8,0.,4.8
1979-07-21 09:23:26.010 ,0,0,0.,4.8,2.,4.8,2.,4.8,0.,4.8
1979-07-21 09:23:30.810 ,0,0,0.,4.8,3.,4.8,3.,4.8,2.,4.8
1979-07-21 09:23:35.610 ,0,0,0.,4.8,3.,4.8,1.,4.8,2.,4.8
1979-07-21 09:23:40.410 ,0,0,0.,4.8,4.,4.8,2.,4.8,1.,4.8
1979-07-21 09:23:45.210 ,0,0,0.,4.8,3.,4.8,4.,4.8,1.,4.8
1979-07-21 09:23:50.010 ,0,0,0.,4.8,4.,4.8,1.,4.8,2.,4.8
1979-07-21 09:23:54.810 ,0,0,0.,4.8,4.,4.8,2.,4.8,2.,4.8
1979-07-21 09:23:59.610 ,1,0,0.,4.8,7.,4.8,0.,4.8,0.,4.8
1979-07-21 09:24:04.410 ,1,0,0.,4.8,4.,4.8,1.,4.8,1.,4.8
1979-07-21 09:24:09.210 ,1,0,0.,4.8,3.,4.8,4.,4.8,1.,4.8
1979-07-21 09:24:14.010 ,1,0,0.,4.8,4.,4.8,3.,4.8,1.,4.8
1979-07-21 09:24:18.810 ,1,0,0.,4.8,0.,4.8,2.,4.8,1.,4.8
1979-07-21 09:24:23.610 ,1,0,0.,4.8,3.,4.8,0.,4.8,2.,4.8
1979-07-21 09:24:28.410 ,1,0,0.,4.8,2.,4.8,1.,4.8,0.,4.8
1979-07-21 09:24:33.210 ,1,0,0.,4.8,2.,4.8,0.,4.8,1.,4.8
1979-07-21 09:24:38.010 ,1,0,0.,4.8,5.,4.8,0.,4.8,2.,4.8
1979-07-21 09:24:42.810 ,1,0,0.,4.8,3.,4.8,2.,4.8,0.,4.8
1979-07-21 09:24:47.610 ,2,0,0.,4.8,3.,4.8,0.,4.8,1.,4.8
1979-07-21 09:24:52.410 ,2,0,0.,4.8,2.,4.8,0.,4.8,0.,4.8
1979-07-21 09:24:57.210 ,2,0,0.,4.8,6.,4.8,2.,4.8,1.,4.8
1979-07-21 09:25:02.010 ,2,0,0.,4.8,4.,4.8,3.,4.8,0.,4.8
1979-07-21 09:25:06.810 ,2,0,0.,4.8,3.,4.8,1.,4.8,2.,4.8
1979-07-21 09:25:11.610 ,2,0,0.,4.8,5.,4.8,4.,4.8,2.,4.8
1979-07-21 09:25:16.410 ,2,0,0.,4.8,5.,4.8,0.,4.8,1.,4.8
1979-07-21 09:25:21.210 ,2,0,0.,4.8,6.,4.8,1.,4.8,1.,4.8
1979-07-21 09:25:26.010 ,2,0,0.,4.8,2.,4.8,0.,4.8,2.,4.8
1979-07-21 09:25:30.810 ,2,0,0.,4.8,4.,4.8,3.,4.8,2.,4.8
1979-07-21 09:25:35.610 ,3,0,0.,4.8,3.,4.8,1.,4.8,1.,4.8
1979-07-21 09:25:40.410 ,3,0,0.,4.8,5.,4.8,4.,4.8,0.,4.8
1979-07-21 09:25:45.210 ,3,0,0.,4.8,5.,4.8,1.,4.8,1.,4.8
1979-07-21 09:25:50.010 ,3,0,0.,4.8,6.,4.8,4.,4.8,0.,4.8
1979-07-21 09:25:54.810 ,3,0,0.,4.8,2.,4.8,1.,4.8,2.,4.8
1979-07-21 09:25:59.610 ,3,0,0.,4.8,3.,4.8,4.,4.8,1.,4.8
1979-07-21 09:26:04.410 ,3,0,0.,4.8,5.,4.8,2.,4.8,0.,4.8
1979-07-21 09:26:09.210 ,3,0,0.,4.8,5.,4.8,2.,4.8,2.,4.8
1979-07-21 09:26:14.010 ,3,0,0.,4.8,5.,4.8,1.,4.8,2.,4.8
1979-07-21 09:26:18.810 ,3,0,0.,4.8,1.,4.8,1.,4.8,1.,4.8
1979-07-21 09:26:23.610 ,4,0,0.,4.8,5.,4.8,2.,4.8,0.,4.8
1979-07-21 09:26:28.410 ,4,0,0.,4.8,5.,4.8,0.,4.8,2.,4.8
1979-07-21 09:26:33.210 ,4,0,0.,4.8,1.,4.8,2.,4.8,1.,4.8
1979-07-21 09:26:38.010 ,4,0,0.,4.8,1.,4.8,3.,4.8,0.,4.8
1979-07-21 09:26:42.810 ,4,0,0.,4.8,5.,4.8,1.,4.8,0.,4.8
1979-07-21 09:26:47.610 ,4,0,0.,4.8,2.,4.8,1.,4.8,2.,4.8
1979-07-21 09:26:52.410 ,4,0,0.,4.8,4.,4.8,0.,4.8,2.,4.8
1979-07-21 09:26:57.210 ,4,0,0.,4.8,1.,4.8,3.,4.8,2.,4.8
1979-07-21 09:27:02.010 ,4,0,0.,4.8,5.,4.8,3.,4.8,2.,4.8
1979-07-21 09:27:06.810 ,4,0,0.,4.8,8.,4.8,0.,4.8,1.,4.8
1979-07-21 09:27:11.610 ,5,0,0.,4.8,3.,4.8,0.,4.8,3.,4.8
1979-07-21 09:27:16.410 ,5,0,0.,4.8,2.,4.8,1.,4.8,0.,4.8
1979-07-21 09:27:21.210 ,5,0,0.,4.8,4.,4.8,0.,4.8,2.,4.8
1979-07-21 09:27:26.010 ,5,0,0.,4.8,5.,4.8,0.,4.8,0.,4.8
1979-07-21 09:27:30.810 ,5,0,0.,4.8,3.,4.8,4.,4.8,0.,4.8
1979-07-21 09:27:35.610 ,5,0,0.,4.8,1.,4.8,3.,4.8,1.,4.8
1979-07-21 09:27:40.410 ,5,0,0.,4.8,2.,4.8,0.,4.8,3.,4.8
1979-07-21 09:27:45.210 ,5,0,0.,4.8,1.,4.8,1.,4.8,4.,4.8
1979-07-21 09:27:50.010 ,5,0,0.,4.8,2.,4.8,3.,4.8,2.,4.8
1979-07-21 09:27:54.810 ,5,0,0.,4.8,2.,4.8,2.,4.8,3.,4.8
1979-07-21 09:27:59.610 ,6,0,0.,4.8,0.,4.8,3.,4.8,2.,4.8
1979-07-21 09:28:04.410 ,6,0,0.,4.8,3.,4.8,1.,4.8,2.,4.8
1979-07-21 09:28:09.210 ,6,0,0.,4.8,1.,4.8,0.,4.8,1.,4.8
1979-07-21 09:28:14.010 ,6,0,0.,4.8,6.,4.8,2.,4.8,0.,4.8
1979-07-21 09:28:18.810 ,6,0,0.,4.8,3.,4.8,3.,4.8,2.,4.8
1979-07-21 09:28:23.610 ,6,0,0.,4.8,4.,4.8,1.,4.8,1.,4.8
1979-07-21 09:28:28.410 ,6,0,0.,4.8,4.,4.8,1.,4.8,0.,4.8
1979-07-21 09:28:33.210 ,6,0,0.,4.8,3.,4.8,3.,4.8,1.,4.8
1979-07-21 09:28:38.010 ,6,0,0.,4.8,4.,4.8,2.,4.8,1.,4.8
1979-07-21 09:28:42.810 ,6,0,0.,4.8,2.,4.8,2.,4.8,0.,4.8
1979-07-21 09:28:47.610 ,7,0,0.,4.8,4.,4.8,1.,4.8,3.,4.8
1979-07-21 09:28:52.410 ,7,0,0.,4.8,2.,4.8,2.,4.8,1.,4.8
1979-07-21 09:28:57.210 ,7,0,0.,4.8,0.,4.8,0.,4.8,0.,4.8
1979-07-21 09:29:02.010 ,7,0,0.,4.8,0.,4.8,0.,4.8,0.,4.8
1979-07-21 09:29:06.810 ,7,0,0.,4.8,0.,4.8,1.,4.8,0.,4.8
1979-07-21 09:29:11.610 ,7,0,0.,4.8,0.,4.8,0.,4.8,0.,4.8
1979-07-21 09:29:16.410 ,7,0,0.,4.8,1.,4.8,0.,4.8,0.,4.8
1979-07-21 09:29:21.210 ,7,0,0.,4.8,0.,4.8,0.,4.8,0.,4.8
1979-07-21 09:29:26.010 ,7,0,0.,4.8,0.,4.8,0.,4.8,0.,4.8
1979-07-21 09:29:30.810 ,7,0,0.,4.8,2.,4.8,0.,4.8,0.,4.8
1979-07-21 09:29:35.610 ,7,0,0.,4.8,2.,4.8,0.,4.8,0.,4.8
1979-07-21 09:29:40.410 ,7,0,0.,4.8,0.,4.8,1.,4.8,0.,4.8
1979-07-21 09:29:45.210 ,7,0,0.,4.8,0.,4.8,0.,4.8,0.,4.8
1979-07-21 09:29:50.010 ,7,0,0.,4.8,0.,4.8,0.,4.8,0.,4.8
1979-07-21 09:29:54.810 ,7,0,0.,4.8,0.,4.8,0.,4.8,0.,4.8
1979-07-21 09:29:59.610 ,7,0,0.,4.8,1.,4.8,1.,4.8,0.,4.8
1979-07-21 09:30:04.410 ,7,0,0.,4.8,0.,4.8,1.,4.8,0.,4.8
1979-07-21 09:30:09.210 ,7,0,0.,4.8,1.,4.8,0.,4.8,1.,4.8
1979-07-21 09:30:14.010 ,7,0,0.,4.8,1.,4.8,0.,4.8,0.,4.8
1979-07-21 09:30:18.810 ,7,0,0.,4.8,0.,4.8,0.,4.8,0.,4.8
1979-07-21 09:30:23.610 ,6,0,0.,4.8,0.,4.8,1.,4.8,0.,4.8
1979-07-21 09:30:28.410 ,6,0,0.,4.8,0.,4.8,0.,4.8,0.,4.8
1979-07-21 09:30:33.210 ,6,0,0.,4.8,3.,4.8,0.,4.8,0.,4.8
1979-07-21 09:30:38.010 ,6,0,0.,4.8,1.,4.8,2.,4.8,0.,4.8
1979-07-21 09:30:42.810 ,6,0,0.,4.8,0.,4.8,4.,4.8,0.,4.8
1979-07-21 09:30:47.610 ,6,0,0.,4.8,3.,4.8,2.,4.8,1.,4.8
1979-07-21 09:30:52.410 ,6,0,0.,4.8,3.,4.8,2.,4.8,2.,4.8
1979-07-21 09:30:57.210 ,6,0,0.,4.8,1.,4.8,2.,4.8,2.,4.8
1979-07-21 09:31:02.010 ,6,0,0.,4.8,4.,4.8,3.,4.8,1.,4.8
1979-07-21 09:31:06.810 ,6,0,0.,4.8,5.,4.8,2.,4.8,2.,4.8
1979-07-21 09:31:11.610 ,5,0,0.,4.8,5.,4.8,0.,4.8,0.,4.8
1979-07-21 09:31:16.410 ,5,0,0.,4.8,4.,4.8,1.,4.8,2.,4.8
1979-07-21 09:31:21.210 ,5,0,0.,4.8,2.,4.8,1.,4.8,1.,4.8
1979-07-21 09:31:26.010 ,5,0,0.,4.8,2.,4.8,2.,4.8,1.,4.8
1979-07-21 09:31:30.810 ,5,0,0.,4.8,5.,4.8,0.,4.8,0.,4.8
1979-07-21 09:31:35.610 ,5,0,0.,4.8,4.,4.8,3.,4.8,1.,4.8
1979-07-21 09:31:40.410 ,5,0,0.,4.8,2.,4.8,3.,4.8,0.,4.8
1979-07-21 09:31:45.210 ,5,0,0.,4.8,3.,4.8,0.,4.8,2.,4.8
1979-07-21 09:31:50.010 ,5,0,0.,4.8,6.,4.8,0.,4.8,0.,4.8
1979-07-21 09:31:54.810 ,5,0,0.,4.8,2.,4.8,3.,4.8,3.,4.8
1979-07-21 09:31:59.610 ,4,0,0.,4.8,4.,4.8,4.,4.8,1.,4.8
1979-07-21 09:32:04.410 ,4,0,0.,4.8,5.,4.8,3.,4.8,2.,4.8
1979-07-21 09:32:09.210 ,4,0,0.,4.8,1.,4.8,2.,4.8,1.,4.8
1979-07-21 09:32:14.010 ,4,0,0.,4.8,3.,4.8,1.,4.8,3.,4.8
1979-07-21 09:32:18.810 ,4,0,0.,4.8,8.,4.8,3.,4.8,1.,4.8
1979-07-21 09:32:23.610 ,4,0,0.,4.8,4.,4.8,0.,4.8,1.,4.8
1979-07-21 09:32:28.410 ,4,0,0.,4.8,3.,4.8,1.,4.8,3.,4.8
1979-07-21 09:32:33.210 ,4,0,0.,4.8,4.,4.8,2.,4.8,0.,4.8
1979-07-21 09:32:38.010 ,4,0,0.,4.8,4.,4.8,0.,4.8,1.,4.8
1979-07-21 09:32:42.810 ,4,0,0.,4.8,2.,4.8,1.,4.8,0.,4.8
1979-07-21 09:32:47.610 ,3,0,0.,4.8,3.,4.8,3.,4.8,2.,4.8
1979-07-21 09:32:52.410 ,3,0,0.,4.8,3.,4.8,1.,4.8,1.,4.8
1979-07-21 09:32:57.210 ,3,0,0.,4.8,2.,4.8,1.,4.8,0.,4.8
1979-07-21 09:33:02.010 ,3,0,0.,4.8,7.,4.8,2.,4.8,1.,4.8
1979-07-21 09:33:06.810 ,3,0,0.,4.8,4.,4.8,1.,4.8,2.,4.8
1979-07-21 09:33:11.610 ,3,0,0.,4.8,4.,4.8,2.,4.8,0.,4.8
1979-07-21 09:33:16.410 ,3,0,0.,4.8,2.,4.8,1.,4.8,1.,4.8